Flag for Bosnia-Herzegovina Weather past 2 weeks in Mostar, Bosnia-Herzegovina

Now
64 °F

Passing clouds.


Feels Like: 64 °F
Forecast: 61 / 90 °F
Wind: 3 mph from North

Location: Mostar

Current Time: Aug 21, 2014 at 2:29:23 AM

Latest Report: Aug 21, 2014 at 2:00 AM


Visibility: N/A

Pressure: 29.98 "Hg

Humidity: 88%

Dew point: 61 °F

Location of MostarLocation

Historic Weather in Mostar — Graph

°F

Mostar temperature yesterday

Maximum temperature yesterday: 84 °F (at 5:00 PM)
Minimum temperature yesterday: 61 °F (at 4:00 AM)
Average temperature yesterday: 72 °F

Past Weeks' High & Low Weather Summary

 TemperatureHumidityPressure
High97 °F (Aug 12, 3:30 PM)100% (Aug 8, 4:00 AM)30.01 "Hg (Aug 8, 4:00 AM)
Low54 °F (Aug 19, 6:00 AM)28% (Aug 12, 3:30 PM)29.71 "Hg (Aug 6, 3:30 PM)
Average77 °F59%29.89 "Hg
* Reported Aug 6 1:00 AM — Aug 21 1:00 AM, Mostar, Weather by CustomWeather, © 2014

Note: Actual official high and low records may vary slightly from our data, if they occured in-between our weather recording intervals... More about our weather records

Advertising

Mostar weather history for previous 24 hours

 ConditionsComfort  
Time TempWeatherWind HumidityBarometerVisibility
1:00 AM
Aug 21
66 °FClear.3 mph83%30.01 "Hg10 mi
12:00 AM68 °FClear.2 mph83%30.01 "Hg10 mi
11:00 PM
Aug 20
70 °FClear.1 mph78%30.01 "Hg10 mi
10:00 PM72 °FClear.1 mph73%30.01 "Hg10 mi
9:00 PM73 °FClear.3 mph69%29.98 "Hg10 mi
8:00 PM79 °FSunny.1 mph58%29.98 "Hg10 mi
7:00 PM81 °FPassing clouds.5 mph51%29.95 "HgN/A
6:00 PM82 °FPassing clouds.7 mph48%29.95 "HgN/A
5:00 PM84 °FPassing clouds.8 mph51%29.95 "HgN/A
4:00 PM82 °FScattered clouds.5 mph55%29.95 "HgN/A
3:00 PM82 °FBroken clouds.6 mph51%29.95 "HgN/A
2:00 PM82 °FPassing clouds.6 mph48%29.95 "HgN/A
1:00 PM79 °FScattered clouds.2 mph54%29.98 "HgN/A
12:00 PM72 °FPassing clouds.6 mph73%29.98 "HgN/A
11:00 AM68 °FMostly cloudy.2 mph83%29.98 "HgN/A
10:00 AM66 °FRain. Partly sunny.2 mph88%29.98 "HgN/A
9:00 AM66 °FLight rain. Broken clouds.2 mph83%29.95 "HgN/A
8:00 AM66 °FPartly sunny.2 mph73%29.98 "HgN/A
7:00 AM63 °FPassing clouds.2 mph83%29.95 "HgN/A
6:00 AM63 °FPassing clouds.2 mph83%29.95 "HgN/A
5:00 AM63 °FPassing clouds.3 mph83%29.95 "HgN/A
4:00 AM61 °FClear.3 mph83%29.95 "Hg10 mi
2:00 AM64 °FClear.1 mph78%29.95 "Hg10 mi
Weather by CustomWeather, © 2014

See weather overviewHow to use our weather pages